Starlink 6368

operational
NORAD ID: 57234 Int'l Des: 2023-094 Owner: SPXS Country: US Constellation: starlink
LEOCIRCULAR

About Starlink 6368

Description loading...

Live Position

Loading 3D Globe...

Upcoming Passes

Altitude History

Altitude vs Time

uPlot chart will show altitude changes over time

Two-Line Element Set

1 57234U 23094S 25351.05091909 -.00001481 00000-0 -94583-4 0 9997
2 57234 43.0023 118.9555 0001258 266.8979 93.1719 15.02532413134691
Epoch: Dec 17, 2025 • Age: 13 hours

Current Status

Altitude 559.6 km
Velocity 7.59 km/s
Sub-Earth Point 25.97°N, 151.56°W
Launch Date Jul 7, 2023
Age 2.4 years
Type internet

Technical Details

Classification Payload
Mass 305.00 kg
Dry Mass 290.00 kg
Total Mass 305.00 kg
Length 0.20 m
Diameter 2.80 m
Span 9.00 m
Shape Box + pan
Manufacturer SPXS
Bus Type Starlink
Phase Status In Orbit
Owner/State SPXS/US

Large Constellations

Loading constellations...